User: anonymous   Login
Location: Fort Wayne
(41.1310°N, 85.1290°W)
Time: 05:10:47
(UTC-05:00)
Language:

Cosmos 2219 Rocket - Orbit

View from above orbital plane
View from above orbital plane
View from above satellite
View from above satellite

Ground track
Ground track

The orbit data is extracted from the following two-line orbital elements,

1 22220U 92076B   14325.26095494  .00000378  00000-0  21437-3 0  4607
2 22220 071.0012 235.5175 0015096 265.4595 223.0115 14.16331521137828
Epoch (UTC): 21 November 2014 06:15:46
Eccentricity: 0.0015096
inclination: 71.0012°
perigee height: 827 km
apogee height: 848 km
right ascension of ascending node: 235.5175°
argument of perigee: 265.4595°
revolutions per day: 14.16331521
mean anomaly at epoch: 223.0115°
orbit number at epoch: 13782

The dashed part of the orbit path shows where the satellite is in the earth's shadow,  

DLR